Wind_Speed
24 26 27 28 28 28 29 29 30 31 32 32 32 33 33 32 33 33 34 34 34 35 36 36 37 38 39 40 41 41 42 42 41 42 42 42 41 41 42 42 42 43 44
25 26 27 28 29 29 30 30 31 32 33 33 34 34 33 33 34 34 33 33 34 34 35 35 35 36 38 39 40 41 41 42 42 42 42 42 42 42 42 42 43 44 44
26 27 28 29 30 31 32 33 33 34 35 35 35 34 34 34 34 34 33 33 33 33 34 34 34 35 35 36 37 39 40 41 41 42 42 43 43 43 44 43 42 43 44
27 28 29 31 32 32 34 34 35 36 36 36 35 35 34 34 34 33 33 32 32 32 32 33 33 34 34 35 36 37 38 39 40 41 42 43 43 43 44 44 44 44 43
28 29 31 32 33 34 35 36 36 37 37 36 36 36 35 35 34 33 32 32 31 31 31 31 31 32 33 34 35 36 37 38 39 40 41 43 43 43 44 44 44 44 44
28 30 31 32 34 35 36 37 37 37 37 37 37 36 36 35 33 32 32 31 30 30 29 29 30 30 31 32 34 35 36 37 38 40 41 42 43 44 44 45 45 45 45
29 31 32 33 35 36 38 38 38 38 38 38 37 36 35 34 34 32 31 30 29 29 28 28 28 28 28 30 32 33 35 37 38 39 41 42 42 43 44 45 46 46 45
30 32 33 34 36 37 38 39 39 39 39 38 38 37 35 34 33 32 31 29 29 28 28 27 27 27 27 28 29 30 32 35 37 38 40 42 43 43 44 45 45 46 45
32 33 35 36 37 38 39 39 39 40 39 39 38 37 35 34 33 32 31 30 29 28 27 26 26 26 26 27 29 30 31 33 35 37 38 41 42 43 44 45 45 45 46
33 34 36 37 38 39 40 40 40 40 40 40 38 37 35 34 33 32 31 29 28 27 26 26 26 26 26 27 28 29 31 32 34 36 38 40 42 43 44 44 45 46 46
33 35 37 38 38 39 40 40 41 41 41 40 38 36 35 34 33 31 30 29 28 27 26 26 26 26 26 27 28 29 30 31 33 34 36 38 40 42 43 44 45 45 45
34 36 37 38 39 40 40 41 41 41 40 39 38 36 34 34 33 32 30 30 29 27 26 26 26 25 26 26 27 28 29 30 31 33 34 35 37 39 41 43 45 45 45
35 36 37 39 40 40 41 41 41 41 40 39 37 36 35 34 33 32 30 29 28 26 26 26 25 25 24 24 25 26 27 28 30 31 33 34 36 38 40 42 44 45 45
36 38 38 39 41 41 41 41 42 41 40 39 37 36 35 34 32 31 29 28 26 25 25 25 24 23 22 22 22 22 24 25 27 29 31 33 34 36 38 40 42 43 44
38 39 39 40 41 41 41 42 42 41 40 38 37 36 35 33 31 30 29 27 26 25 24 23 23 21 20 19 19 19 20 21 23 25 27 29 31 33 35 37 39 41 43
39 39 39 40 41 42 42 42 41 41 40 38 37 36 34 32 30 29 28 26 26 25 24 22 21 20 19 18 17 17 17 17 19 22 24 26 28 30 32 35 37 39 40
40 40 40 41 42 42 42 42 41 41 40 38 36 35 33 31 29 28 27 26 25 24 23 21 20 19 18 17 16 15 15 16 16 19 21 24 25 27 30 32 35 37 37
40 40 41 42 43 43 43 42 41 40 39 38 36 34 32 31 29 27 26 25 24 24 22 21 20 19 17 16 15 14 14 14 14 16 19 21 23 25 27 30 33 35 36
40 41 41 42 43 43 42 42 41 40 39 37 35 34 33 31 29 27 26 25 24 23 22 21 20 18 17 15 14 13 12 12 12 14 16 19 21 23 25 27 30 33 34
41 42 42 42 42 42 41 41 41 39 38 36 35 34 32 30 28 27 25 24 23 22 21 21 20 18 16 15 13 12 11 10 10 11 14 17 19 21 22 24 27 29 31
42 42 42 42 42 42 42 41 40 38 37 36 34 33 31 29 28 26 24 23 22 21 21 20 19 17 15 14 12 11 10 9 9 9 11 13 16 18 20 22 25 27 28
43 43 43 43 42 42 41 40 39 38 36 35 33 32 30 29 27 26 24 22 21 21 20 20 18 16 15 12 11 10 9 8 8 8 9 11 14 16 17 20 22 24 25
44 44 44 43 42 42 41 39 38 36 35 34 33 31 29 27 26 25 23 21 20 20 20 19 17 16 14 11 10 10 9 8 8 9 9 10 12 14 16 18 20 22 23
44 44 44 43 43 42 40 39 37 35 34 33 32 30 28 27 25 23 22 20 19 19 18 18 17 15 13 11 10 9 9 9 8 8 8 9 11 12 14 16 18 20 22
45 44 44 43 42 41 39 37 36 34 32 31 30 29 27 26 24 22 21 19 18 18 18 17 16 14 13 12 11 10 9 9 8 7 7 8 9 11 13 15 17 19 21
45 44 44 42 41 40 38 36 34 32 31 30 29 27 25 24 23 21 20 19 18 17 17 16 15 13 12 11 11 10 9 9 8 7 7 8 9 10 11 13 16 17 19
Wind_Direction
337 335 334 333 331 329 328 326 324 323 321 319 315 312 309 305 301 298 295 291 287 283 280 277 273 268 263 259 257 254 251 249 248 245 245 243 243 240 237 236 235 233 231
336 335 335 334 333 331 330 328 326 324 323 320 316 314 310 307 304 302 299 295 290 285 282 278 274 270 265 260 256 253 251 248 247 245 244 243 241 239 237 236 235 233 231
337 336 336 336 335 333 332 330 328 326 324 322 320 317 314 311 308 305 302 297 292 287 283 278 274 270 266 261 256 253 251 248 246 244 243 243 241 239 237 236 234 233 232
337 337 337 337 336 335 333 332 330 328 327 325 323 320 317 314 311 308 304 301 296 291 286 280 274 270 266 261 257 254 252 249 246 244 242 241 240 239 237 236 235 235 233
338 338 337 336 336 335 334 333 331 330 329 327 324 322 319 316 313 310 307 303 299 295 290 283 277 272 268 262 257 254 252 250 247 244 242 241 240 238 236 236 234 234 233
336 336 336 336 336 335 334 334 333 332 331 329 326 324 321 318 316 313 310 306 302 297 292 287 281 275 269 264 258 254 252 250 248 246 243 241 239 237 236 235 235 233 233
334 334 334 334 335 335 335 334 333 333 332 330 328 326 323 320 318 315 313 309 305 300 295 289 284 279 273 267 260 255 252 250 248 246 244 242 240 238 236 235 234 233 233
333 334 333 333 334 334 334 334 334 333 333 331 329 327 325 322 319 317 315 311 307 303 298 292 286 280 276 270 264 258 254 250 248 245 243 241 240 238 237 235 235 233 232
331 332 333 333 333 334 334 335 334 334 334 332 330 328 326 324 321 319 317 314 309 305 300 295 289 283 278 273 267 262 257 252 249 246 243 241 240 238 236 235 235 234 232
330 331 332 332 333 334 334 334 334 334 333 333 332 329 327 325 323 321 319 316 313 309 303 298 293 286 280 274 269 264 258 254 250 247 243 241 240 239 237 235 234 234 232
327 329 330 331 332 333 334 333 333 333 333 333 332 330 328 327 325 322 320 318 314 311 307 302 297 290 283 276 271 266 260 254 251 247 244 241 239 238 237 235 234 233 232
324 326 328 330 331 332 333 333 333 333 333 333 332 330 329 328 326 324 321 319 316 313 310 306 301 295 288 281 274 268 261 255 251 248 245 242 240 238 236 235 234 234 232
323 325 327 329 330 331 331 332 333 333 332 332 333 332 330 329 327 326 324 321 318 316 313 309 305 299 293 287 280 272 264 258 253 249 244 241 240 238 235 234 233 233 232
323 324 326 328 329 330 331 332 333 333 333 333 332 332 332 331 329 328 327 326 323 319 317 313 309 304 299 293 284 275 267 260 255 249 243 240 238 236 234 233 232 231 231
322 324 325 326 329 329 330 331 332 333 333 333 332 332 332 332 331 330 330 328 325 323 321 319 316 309 304 299 292 283 272 262 255 249 243 239 236 234 232 231 230 229 229
318 320 324 325 327 328 328 329 330 331 332 333 333 332 331 332 332 332 331 329 328 327 325 324 322 317 311 305 297 289 279 269 258 248 241 236 234 234 232 229 227 227 227
318 319 321 323 325 326 327 327 328 330 331 332 333 332 330 330 330 330 331 330 330 330 327 325 324 322 316 310 303 293 284 274 261 249 242 237 235 233 231 229 226 225 226
317 319 321 322 323 324 325 326 327 328 329 330 331 332 330 328 329 330 330 330 331 332 331 329 326 325 322 316 310 302 290 277 264 251 243 238 235 232 230 229 226 224 224
316 317 319 320 322 323 323 323 324 325 326 328 329 330 330 328 328 329 329 328 329 330 331 330 328 327 324 319 314 307 297 284 269 254 244 238 235 232 229 228 226 223 223
314 315 317 318 319 320 321 322 322 323 324 326 327 328 329 328 327 328 328 327 328 329 329 329 328 327 325 323 317 310 304 292 276 262 247 240 236 232 230 228 224 221 221
312 314 315 316 317 317 318 320 320 321 322 323 325 326 327 327 327 326 326 327 327 328 328 329 328 326 324 323 320 312 305 296 282 266 250 240 234 232 230 227 222 219 218
311 312 313 314 315 316 316 317 318 318 319 320 322 323 323 325 326 326 325 325 325 325 326 326 327 327 323 319 316 312 305 297 286 274 258 245 236 231 227 223 219 217 216
309 310 310 311 312 312 313 314 314 315 316 317 319 320 321 321 323 325 326 325 323 322 324 326 326 326 323 319 314 307 303 297 288 278 263 249 236 228 222 218 216 215 215
306 307 307 308 308 309 309 310 311 311 313 314 315 317 318 319 320 321 324 324 323 322 324 326 327 325 322 318 312 306 303 297 287 276 261 247 237 229 222 217 216 215 216
304 305 305 305 305 306 306 306 307 308 309 310 311 313 314 315 315 317 320 321 321 321 322 325 326 324 322 319 313 304 302 299 291 274 256 244 235 229 223 220 219 217 217
303 303 303 303 303 303 303 303 304 305 305 306 307 309 310 311 312 314 316 318 319 319 321 323 324 323 318 317 319 314 304 296 283 269 257 248 237 231 226 221 218 218 218
Height
5818 5814 5810 5806 5802 5798 5793 5789 5784 5779 5774 5769 5764 5760 5756 5752 5748 5745 5742 5739 5737 5735 5733 5733 5732 5732 5733 5734 5736 5739 5742 5745 5750 5754 5757 5762 5766 5771 5776 5781 5786 5791 5796
5815 5811 5807 5802 5798 5793 5788 5783 5778 5773 5768 5762 5757 5752 5748 5743 5739 5735 5732 5729 5726 5724 5722 5721 5720 5720 5721 5722 5724 5726 5730 5733 5737 5742 5746 5750 5755 5760 5765 5770 5776 5781 5786
5812 5807 5803 5798 5793 5788 5783 5777 5772 5766 5760 5755 5749 5744 5739 5735 5730 5726 5722 5718 5716 5713 5711 5710 5709 5709 5709 5710 5712 5714 5717 5721 5725 5730 5735 5739 5744 5749 5754 5759 5765 5771 5776
5808 5803 5799 5794 5789 5783 5778 5772 5766 5760 5754 5747 5742 5736 5731 5726 5721 5717 5713 5709 5705 5703 5700 5699 5698 5698 5698 5699 5700 5703 5706 5709 5713 5718 5723 5728 5733 5737 5743 5748 5754 5760 5766
5805 5800 5795 5790 5784 5778 5772 5766 5760 5753 5747 5741 5735 5729 5723 5718 5713 5708 5704 5700 5696 5693 5690 5688 5687 5687 5687 5688 5689 5692 5695 5698 5702 5706 5711 5716 5721 5726 5731 5737 5743 5749 5755
5801 5796 5791 5785 5780 5773 5767 5761 5754 5747 5741 5734 5728 5721 5715 5710 5704 5700 5695 5691 5687 5684 5681 5679 5677 5677 5676 5677 5678 5681 5684 5687 5691 5695 5699 5704 5710 5715 5720 5726 5732 5738 5745
5797 5792 5786 5781 5775 5768 5762 5755 5748 5741 5734 5727 5721 5714 5708 5702 5696 5691 5686 5682 5678 5675 5672 5670 5668 5667 5666 5667 5668 5670 5672 5675 5679 5683 5688 5692 5697 5703 5709 5715 5720 5727 5734
5793 5787 5782 5776 5770 5763 5756 5749 5742 5735 5728 5721 5714 5707 5701 5695 5689 5684 5679 5674 5670 5667 5664 5661 5659 5658 5657 5657 5658 5659 5661 5664 5667 5671 5676 5681 5685 5690 5696 5703 5708 5716 5723
5788 5783 5777 5770 5764 5757 5750 5743 5736 5729 5721 5714 5707 5700 5694 5688 5682 5676 5671 5666 5662 5659 5655 5652 5650 5649 5648 5648 5648 5650 5651 5653 5655 5659 5664 5668 5673 5679 5684 5691 5698 5705 5712
5783 5777 5771 5765 5759 5752 5745 5737 5730 5723 5715 5708 5701 5694 5687 5681 5675 5669 5664 5659 5655 5651 5647 5644 5642 5640 5639 5638 5638 5639 5641 5643 5645 5648 5652 5657 5661 5667 5673 5680 5686 5693 5700
5778 5772 5766 5760 5753 5746 5739 5732 5724 5717 5709 5702 5695 5688 5681 5675 5669 5663 5658 5652 5648 5644 5640 5637 5634 5632 5630 5629 5629 5629 5630 5632 5634 5637 5641 5645 5650 5655 5661 5668 5675 5682 5689
5772 5767 5761 5754 5748 5741 5734 5726 5718 5711 5703 5696 5689 5682 5675 5669 5663 5657 5651 5646 5641 5637 5633 5629 5626 5623 5621 5620 5619 5619 5619 5621 5623 5626 5630 5634 5639 5645 5650 5656 5663 5670 5677
5766 5761 5755 5748 5742 5735 5728 5720 5713 5705 5698 5690 5683 5677 5670 5663 5657 5651 5645 5640 5635 5630 5626 5622 5619 5615 5613 5611 5609 5608 5609 5610 5613 5616 5620 5624 5628 5633 5639 5645 5651 5658 5665
5760 5754 5748 5743 5736 5729 5722 5714 5707 5699 5692 5684 5677 5671 5664 5657 5651 5645 5639 5634 5629 5624 5620 5616 5612 5608 5605 5602 5600 5600 5600 5601 5603 5606 5609 5613 5617 5622 5628 5634 5640 5647 5654
5754 5748 5742 5736 5729 5722 5715 5708 5701 5693 5686 5679 5672 5665 5659 5652 5646 5640 5634 5629 5624 5619 5615 5610 5606 5602 5599 5596 5594 5593 5592 5593 5594 5596 5599 5603 5608 5612 5618 5623 5629 5636 5643
5746 5741 5735 5729 5722 5716 5709 5702 5695 5688 5681 5673 5666 5660 5653 5647 5641 5636 5630 5624 5619 5614 5610 5605 5601 5598 5594 5591 5589 5587 5586 5586 5587 5589 5591 5595 5599 5604 5608 5614 5620 5626 5633
5739 5733 5728 5722 5715 5709 5702 5695 5689 5682 5675 5668 5662 5655 5649 5643 5637 5631 5626 5621 5615 5611 5606 5601 5597 5593 5590 5587 5584 5582 5581 5581 5581 5582 5585 5588 5592 5596 5600 5605 5611 5617 5624
5731 5726 5720 5714 5708 5701 5695 5688 5682 5676 5669 5663 5656 5650 5644 5638 5632 5627 5622 5617 5612 5607 5602 5597 5593 5590 5586 5583 5580 5578 5577 5576 5576 5577 5579 5582 5585 5589 5593 5597 5603 5609 5615
5723 5718 5712 5706 5700 5694 5688 5681 5675 5669 5663 5657 5651 5645 5639 5633 5628 5623 5618 5613 5608 5603 5599 5594 5590 5586 5583 5580 5577 5575 5573 5572 5572 5573 5575 5577 5580 5583 5587 5591 5596 5601 5607
5714 5709 5704 5698 5692 5686 5680 5674 5668 5662 5656 5651 5645 5639 5634 5628 5623 5618 5613 5609 5604 5600 5596 5591 5587 5583 5580 5577 5575 5573 5571 5570 5569 5570 5571 5573 5575 5578 5581 5585 5589 5594 5600
5705 5700 5695 5690 5684 5678 5673 5667 5661 5655 5650 5644 5639 5634 5629 5623 5618 5614 5609 5604 5600 5596 5592 5588 5584 5581 5577 5575 5572 5570 5569 5568 5567 5567 5568 5569 5571 5573 5576 5579 5584 5589 5594
5696 5691 5686 5681 5675 5670 5665 5659 5654 5648 5643 5638 5633 5628 5624 5619 5614 5609 5605 5601 5596 5593 5589 5586 5582 5578 5575 5573 5571 5569 5567 5566 5565 5565 5565 5566 5568 5570 5572 5575 5579 5584 5588
5686 5681 5676 5671 5667 5662 5656 5651 5646 5641 5637 5632 5627 5623 5618 5614 5610 5605 5601 5597 5593 5590 5586 5583 5579 5576 5573 5571 5569 5567 5566 5565 5564 5563 5563 5564 5565 5567 5569 5572 5576 5580 5584
5676 5671 5666 5662 5657 5652 5648 5643 5639 5634 5630 5625 5621 5617 5613 5609 5605 5601 5597 5594 5590 5587 5583 5580 5577 5574 5571 5569 5567 5565 5564 5563 5562 5561 5561 5561 5563 5564 5567 5570 5573 5576 5580
5665 5660 5656 5651 5647 5642 5638 5634 5630 5626 5622 5619 5615 5611 5607 5604 5601 5597 5594 5590 5587 5584 5581 5578 5575 5572 5569 5567 5565 5563 5562 5561 5560 5560 5560 5560 5561 5563 5565 5567 5570 5573 5576
5653 5649 5644 5640 5636 5632 5628 5625 5622 5618 5615 5612 5608 5605 5602 5599 5596 5593 5590 5587 5584 5581 5578 5575 5572 5570 5567 5565 5564 5562 5560 5559 5558 5558 5558 5559 5559 5561 5562 5564 5567 5570 5573